Hazlehurst, GA

4:20 AM EDT on October 22, 2019 (GMT -0400)
Hazlehurst

Weather History for KAZE - August, 2019

Change the Weather History Date:

Friday, August 2, 2019

  Actual Average Record
Temperature  
Mean Temperature 80 °F -  
Max Temperature 89 °F 93 °F 91 °F (2015)
Min Temperature 71 °F 69 °F 69 °F (2017)
Cooling Degree Days 15    
Growing Degree Days 30 (Base 50)    
Moisture  
Dew Point 68 °F    
Average Humidity 69    
Maximum Humidity 91    
Minimum Humidity 38    
Precipitation  
Precipitation 0.00 in - - ()
Sea Level Pressure  
Sea Level Pressure 30.01 in    
Wind  
Wind Speed 3 mph (ESE)    
Max Wind Speed 12 mph    
Max Gust Speed 17 mph    
Visibility 9 miles    
Events      
Averages and records for this station are not official NWS values.
T = Trace of Precipitation, MM = Missing Value Source: NWS Daily Summary

Daily Weather History Graph

Daily Weather History Graph

Search for Another Location

Airport or City:

Astronomy

Aug. 02, 2019 Rise Set
Actual Time 6:46 AM EDT 8:26 PM EDT
Civil Twilight 6:20 AM EDT 8:53 PM EDT
Nautical Twilight 5:48 AM EDT 9:24 PM EDT
Astronomical Twilight 5:14 AM EDT 9:58 PM EDT
Moon 8:21 AM EDT (8/2) 10:00 PM EDT (8/2)
Length of Visible Light 14h 33m
Length of Day
13h 39m
Waxing Crescent, 4% of the Moon is Illuminated
Aug 2
Waxing Crescent
Aug 7
First Quarter
Aug 15
Full
Aug 23
Last Quarter
Aug 30
New

Hourly Weather History & Observations

Time (EDT) Temp. Heat Index Dew Point Humidity Pressure Visibility Wind Dir Wind Speed Gust Speed Precip Events Conditions
12:10 AM 74.7 °F - 70.3 °F 86% 30.05 in 10.0 mi Calm Calm - N/A   Clear
12:30 AM 74.5 °F - 70.7 °F 88% 30.06 in 10.0 mi Calm Calm - N/A   Clear
12:50 AM 74.3 °F - 70.2 °F 87% 30.06 in 10.0 mi Calm Calm - N/A   Clear
1:10 AM 74.3 °F - 70.3 °F 87% 30.05 in 10.0 mi Calm Calm - N/A   Clear
1:30 AM 73.8 °F - 69.8 °F 87% 30.05 in 5.0 mi Calm Calm - N/A   Clear
1:50 AM 73.6 °F - 70.0 °F 88% 30.05 in 4.0 mi NNW 3.5 mph - N/A   Scattered Clouds
2:10 AM 73.4 °F - 69.8 °F 88% 30.05 in 3.0 mi Calm Calm - N/A   Mostly Cloudy
2:30 AM 73.0 °F - 69.8 °F 90% 30.04 in 2.0 mi Calm Calm - N/A   Overcast
2:50 AM 72.9 °F - 69.6 °F 90% 30.04 in 10.0 mi Calm Calm - N/A   Scattered Clouds
3:10 AM 72.7 °F - 69.3 °F 89% 30.04 in 10.0 mi Calm Calm - N/A   Clear
3:35 AM 72.5 °F - 69.1 °F 89% 30.04 in 10.0 mi Calm Calm - N/A   Scattered Clouds
3:50 AM 72.5 °F - 68.9 °F 88% 30.04 in 10.0 mi Calm Calm - N/A   Mostly Cloudy
4:10 AM 72.1 °F - 68.9 °F 89% 30.03 in 7.0 mi Calm Calm - N/A   Mostly Cloudy
4:30 AM 72.0 °F - 68.9 °F 90% 30.03 in 4.0 mi Calm Calm - N/A   Mostly Cloudy
4:50 AM 72.0 °F - 68.9 °F 90% 30.03 in 1.2 mi Calm Calm - N/A   Overcast
5:10 AM 71.8 °F - 68.7 °F 90% 30.03 in 1.2 mi Calm Calm - N/A   Overcast
5:30 AM 71.8 °F - 68.9 °F 91% 30.02 in 7.0 mi Calm Calm - N/A   Mostly Cloudy
5:50 AM 71.8 °F - 68.9 °F 91% 30.02 in 7.0 mi Calm Calm - N/A   Clear
6:10 AM 71.6 °F - 68.4 °F 89% 30.02 in 5.0 mi Calm Calm - N/A   Clear
6:30 AM 71.6 °F - 68.5 °F 90% 30.02 in 10.0 mi Calm Calm - N/A   Clear
6:50 AM 71.2 °F - 68.4 °F 91% 30.02 in 5.0 mi Calm Calm - N/A   Clear
7:10 AM 71.8 °F - 68.9 °F 91% 30.02 in 10.0 mi Calm Calm - N/A   Clear
7:50 AM 72.9 °F - 69.3 °F 88% 30.04 in 10.0 mi Calm Calm - N/A   Clear
8:30 AM 73.9 °F - 69.1 °F 85% 30.05 in 10.0 mi East 4.6 mph - N/A   Scattered Clouds
8:50 AM 76.3 °F - 69.8 °F 80% 30.05 in 10.0 mi East 4.6 mph - N/A   Clear
9:10 AM 78.1 °F - 69.6 °F 75% 30.06 in 10.0 mi East 6.9 mph - N/A   Clear
9:30 AM 79.3 °F - 69.8 °F 72% 30.06 in 10.0 mi East 6.9 mph - N/A   Clear
9:50 AM 80.8 °F 84.1 °F 69.8 °F 69% 30.06 in 10.0 mi East 6.9 mph - N/A   Clear
10:10 AM 82.0 °F 85.5 °F 69.4 °F 65% 30.05 in 10.0 mi East 6.9 mph - N/A   Clear
10:30 AM 82.2 °F 86.4 °F 70.5 °F 68% 30.05 in 10.0 mi ESE 3.5 mph - N/A   Mostly Cloudy
10:50 AM 82.6 °F 86.4 °F 69.8 °F 65% 30.05 in 10.0 mi ESE 4.6 mph - N/A   Scattered Clouds
11:10 AM 82.6 °F 86.6 °F 70.0 °F 66% 30.05 in 10.0 mi East 9.2 mph - N/A   Scattered Clouds
11:30 AM 83.5 °F 87.7 °F 70.0 °F 64% 30.05 in 10.0 mi East 6.9 mph - N/A   Mostly Cloudy
11:50 AM 84.0 °F 87.6 °F 68.9 °F 60% 30.05 in 10.0 mi ESE 5.8 mph - N/A   Mostly Cloudy
12:10 PM 84.4 °F 88.2 °F 68.9 °F 60% 30.05 in 10.0 mi East 8.1 mph - N/A   Mostly Cloudy
12:30 PM 84.6 °F 87.6 °F 67.8 °F 57% 30.05 in 10.0 mi ENE 9.2 mph - N/A   Scattered Clouds
12:50 PM 86.5 °F 88.7 °F 65.8 °F 50% 30.04 in 10.0 mi East 6.9 mph - N/A   Clear
1:10 PM 87.3 °F 88.6 °F 64.2 °F 46% 30.04 in 10.0 mi East 8.1 mph - N/A   Clear
1:30 PM 87.1 °F 88.3 °F 64.2 °F 46% 30.04 in 10.0 mi East 11.5 mph 17.3 mph N/A   Clear
1:50 PM 87.3 °F 87.7 °F 62.2 °F 43% 30.03 in 10.0 mi East 9.2 mph - N/A   Clear
2:10 PM 88.2 °F 88.7 °F 62.6 °F 42% 30.02 in 10.0 mi ENE 10.4 mph - N/A   Clear
2:30 PM 88.3 °F 88.9 °F 62.2 °F 42% 30.02 in 10.0 mi ESE 10.4 mph - N/A   Scattered Clouds
2:50 PM 89.6 °F 89.5 °F 61.0 °F 38% 30.00 in 10.0 mi SSE 8.1 mph - N/A   Scattered Clouds
3:10 PM 89.4 °F 89.8 °F 61.9 °F 40% 29.99 in 10.0 mi ESE 9.2 mph - N/A   Scattered Clouds
3:30 PM 87.8 °F 89.1 °F 64.0 °F 45% 29.99 in 10.0 mi SE 6.9 mph - N/A   Scattered Clouds
3:50 PM 87.4 °F 89.1 °F 64.8 °F 47% 29.98 in 10.0 mi East 9.2 mph - N/A   Scattered Clouds
4:10 PM 89.1 °F 90.3 °F 64.0 °F 43% 29.97 in 10.0 mi East 9.2 mph - N/A   Scattered Clouds
4:30 PM 88.0 °F 90.0 °F 65.7 °F 47% 29.96 in 10.0 mi ESE 5.8 mph - N/A   Scattered Clouds
4:50 PM 88.9 °F 91.0 °F 65.7 °F 46% 29.95 in 10.0 mi ESE 9.2 mph - N/A   Scattered Clouds
5:10 PM 88.7 °F 90.4 °F 65.1 °F 45% 29.95 in 10.0 mi ESE 4.6 mph - N/A   Scattered Clouds
5:30 PM 88.5 °F 90.5 °F 65.1 °F 46% 29.94 in 10.0 mi SSE 3.5 mph - N/A   Scattered Clouds
5:50 PM 89.1 °F 91.0 °F 65.5 °F 45% 29.94 in 10.0 mi ESE 8.1 mph - N/A   Scattered Clouds
6:30 PM 87.1 °F 89.5 °F 66.6 °F 50% 29.94 in 10.0 mi SE 8.1 mph - N/A   Scattered Clouds
6:50 PM 85.5 °F 88.2 °F 67.1 °F 54% 29.95 in 10.0 mi ESE 5.8 mph - N/A   Scattered Clouds
7:10 PM 85.8 °F 88.8 °F 67.5 °F 54% 29.94 in 10.0 mi ESE 6.9 mph - N/A   Clear
7:30 PM 85.5 °F 88.8 °F 68.0 °F 56% 29.95 in 10.0 mi ESE 8.1 mph - N/A   Clear
7:50 PM 84.6 °F 87.4 °F 67.5 °F 56% 29.95 in 10.0 mi ESE 6.9 mph - N/A   Clear
8:10 PM 83.3 °F 86.6 °F 68.4 °F 61% 29.95 in 10.0 mi ESE 6.9 mph - N/A   Clear
8:30 PM 82.0 °F 85.3 °F 68.9 °F 64% 29.96 in 10.0 mi ESE 4.6 mph - N/A   Clear
8:50 PM 81.5 °F 84.8 °F 69.1 °F 66% 29.96 in 10.0 mi ESE 4.6 mph - N/A   Clear
9:10 PM 81.0 °F 84.2 °F 69.4 °F 68% 29.97 in 10.0 mi ESE 4.6 mph - N/A   Clear
9:30 PM 80.6 °F 83.8 °F 69.4 °F 69% 29.98 in 10.0 mi ESE 4.6 mph - N/A   Clear
9:50 PM 80.4 °F 83.5 °F 69.4 °F 69% 29.99 in 10.0 mi ESE 5.8 mph - N/A   Scattered Clouds
10:10 PM 80.1 °F 83.0 °F 69.4 °F 70% 30.00 in 10.0 mi Calm Calm - N/A   Scattered Clouds
10:30 PM 79.7 °F - 69.6 °F 71% 30.00 in 10.0 mi ESE 3.5 mph - N/A   Scattered Clouds
10:50 PM 79.2 °F - 69.8 °F 73% 30.01 in 10.0 mi ESE 3.5 mph - N/A   Scattered Clouds
11:10 PM 78.8 °F - 70.0 °F 74% 30.00 in 10.0 mi Calm Calm - N/A   Scattered Clouds
11:30 PM 78.4 °F - 70.3 °F 76% 30.00 in 10.0 mi Calm Calm - N/A   Clear
11:50 PM 78.1 °F - 70.0 °F 76% 30.00 in 10.0 mi East 4.6 mph - N/A   Mostly Cloudy